TimeEST,TemperatureF,Dew PointF,Humidity,Sea Level PressureIn,VisibilityMPH,Wind Direction,Wind SpeedMPH,Gust SpeedMPH,PrecipitationIn,Events,Conditions,WindDirDegrees,DateUTC
12:53 AM,54.0,48.0,80,30.11,10.0,SW,3.5,-,N/A,,Overcast,220,2000-01-02 05:53:00
1:53 AM,54.0,48.0,80,30.10,10.0,SSW,3.5,-,N/A,,Overcast,200,2000-01-02 06:53:00
2:53 AM,55.0,48.0,77,30.10,10.0,South,4.6,-,N/A,,Overcast,190,2000-01-02 07:53:00
3:53 AM,55.9,46.9,72,30.09,10.0,SSW,5.8,-,N/A,,Overcast,200,2000-01-02 08:53:00
4:53 AM,57.0,46.0,67,30.09,10.0,SSW,6.9,-,N/A,,Mostly Cloudy,210,2000-01-02 09:53:00
5:53 AM,55.9,46.0,69,30.09,10.0,Variable,5.8,-,N/A,,Mostly Cloudy,0,2000-01-02 10:53:00
6:53 AM,55.9,46.0,69,30.09,10.0,SSW,9.2,-,N/A,,Scattered Clouds,210,2000-01-02 11:53:00
7:53 AM,55.0,46.0,72,30.09,10.0,SSW,4.6,-,N/A,,Mostly Cloudy,200,2000-01-02 12:53:00
8:53 AM,57.0,46.9,69,30.09,10.0,SW,4.6,-,N/A,,Mostly Cloudy,220,2000-01-02 13:53:00
9:53 AM,59.0,48.0,67,30.09,10.0,Variable,5.8,-,N/A,,Mostly Cloudy,0,2000-01-02 14:53:00
10:53 AM,62.1,46.0,56,30.06,10.0,Variable,6.9,16.1,N/A,,Scattered Clouds,0,2000-01-02 15:53:00
11:53 AM,64.9,46.0,50,30.01,10.0,SSW,10.4,18.4,N/A,,Scattered Clouds,210,2000-01-02 16:53:00
12:53 PM,66.9,44.1,44,29.96,10.0,SSW,11.5,19.6,N/A,,Mostly Cloudy,200,2000-01-02 17:53:00
1:53 PM,68.0,42.1,39,29.93,10.0,SSW,10.4,18.4,N/A,,Mostly Cloudy,210,2000-01-02 18:53:00
2:53 PM,69.1,39.9,35,29.90,10.0,SSW,11.5,19.6,N/A,,Mostly Cloudy,200,2000-01-02 19:53:00
3:53 PM,69.1,39.9,35,29.90,10.0,SW,8.1,18.4,N/A,,Mostly Cloudy,220,2000-01-02 20:53:00
4:53 PM,68.0,39.9,36,29.91,10.0,SW,11.5,20.7,N/A,,Mostly Cloudy,220,2000-01-02 21:53:00
5:53 PM,66.9,41.0,39,29.92,10.0,SSW,6.9,-,N/A,,Mostly Cloudy,210,2000-01-02 22:53:00
6:53 PM,64.9,42.1,43,29.94,10.0,WSW,6.9,-,N/A,,Scattered Clouds,250,2000-01-02 23:53:00
7:53 PM,63.0,43.0,48,29.96,10.0,SSW,4.6,-,N/A,,Clear,210,2000-01-03 00:53:00
8:53 PM,64.0,46.0,52,29.99,10.0,WSW,12.7,21.9,N/A,,Clear,250,2000-01-03 01:53:00
9:53 PM,63.0,46.9,56,29.99,10.0,SSW,9.2,-,N/A,,Mostly Cloudy,210,2000-01-03 02:53:00
10:53 PM,63.0,48.0,58,29.97,10.0,SSW,9.2,-,N/A,,Scattered Clouds,200,2000-01-03 03:53:00
11:53 PM,62.1,48.0,60,29.97,10.0,SW,6.9,-,N/A,,Mostly Cloudy,220,2000-01-03 04:53:00